Dewpoint
48 45 43 43 44 45 43 42 41 40 40 40 39 39 38 38 38 39 34 25 30 29 30 31 31 30 31 30 28 28 29 29 26 24 23 24 24 30 38 41 45 48 49 51 53 54 55 56 56 57 57 58 59 59 59 59 59 60 60 59 59 59 58 59 58 58 58 58 58 57 57 56 57 58 57 56 56 56 55 55 58 60 60 60 60 60
47 43 43 44 44 44 43 42 41 40 40 39 40 39 38 39 37 39 35 28 29 31 31 29 29 30 30 31 32 34 33 31 30 27 25 25 24 24 35 40 42 45 48 49 52 54 55 56 56 57 57 56 58 58 59 59 59 59 60 60 60 60 59 59 59 58 58 59 58 57 57 56 56 57 56 56 57 57 56 55 57 59 60 60 60 60
44 42 43 44 44 43 42 41 41 40 40 41 41 40 38 38 39 37 32 28 30 34 33 36 33 33 34 35 36 37 37 36 35 34 30 26 26 24 26 38 41 43 45 47 50 54 54 55 56 57 57 57 57 58 58 59 59 59 59 60 60 60 60 60 60 59 58 58 59 58 58 57 56 58 58 56 57 59 58 56 57 60 60 60 60 60
40 42 43 44 43 42 41 41 41 40 40 40 41 40 38 39 38 35 33 32 35 34 34 34 34 35 35 35 35 36 37 37 37 36 35 31 26 25 24 27 38 41 42 44 48 53 54 55 56 56 57 57 57 57 58 58 59 59 58 60 61 60 60 61 61 59 60 59 59 58 58 58 58 58 59 59 59 60 60 59 58 59 60 60 60 60
41 42 43 43 42 41 40 40 40 40 39 40 41 41 40 40 40 37 32 31 33 32 32 31 29 29 29 29 31 31 33 35 36 36 35 34 31 28 30 30 33 38 41 42 45 51 54 54 55 56 56 57 57 57 57 58 58 58 58 59 61 61 61 61 60 60 61 61 60 60 58 58 59 58 59 60 60 60 60 60 60 59 60 60 60 60
41 43 43 42 42 41 41 40 40 41 39 39 40 41 41 41 40 37 32 28 31 34 31 29 28 29 31 30 30 30 30 31 33 34 34 34 32 29 26 27 29 35 40 41 42 49 54 54 55 56 56 57 57 57 57 58 58 58 58 59 60 61 62 61 61 61 61 61 61 60 59 59 59 59 59 59 59 60 60 60 61 61 61 60 60 61
41 43 43 42 41 41 41 40 41 41 39 38 38 41 41 41 40 32 30 36 32 31 29 30 29 27 29 28 29 29 30 30 31 32 33 33 32 30 28 27 27 29 33 40 41 47 53 54 55 56 56 56 57 57 58 58 58 58 58 58 59 60 61 62 61 61 61 61 61 61 60 59 59 58 59 60 60 60 61 61 61 61 61 61 61 61
42 42 42 42 41 41 40 40 41 40 39 38 41 42 42 41 41 40 37 36 35 35 35 28 30 26 29 32 33 33 32 31 30 31 32 33 33 32 29 27 27 28 30 37 41 45 52 54 54 55 56 56 57 57 58 58 58 58 58 58 58 59 59 61 62 61 61 61 61 61 61 60 60 59 59 60 60 61 61 61 61 61 61 61 61 61
42 41 42 41 41 40 40 40 41 41 39 39 42 42 41 41 40 40 39 36 34 32 32 29 31 28 27 29 30 32 31 30 30 30 31 32 33 33 33 31 28 27 30 35 40 44 50 53 54 55 56 56 57 57 57 58 58 58 58 58 58 58 59 60 61 61 61 61 61 61 61 61 60 61 60 60 60 61 60 61 61 61 61 61 61 61
42 42 41 41 41 39 40 41 42 41 39 41 43 43 42 43 40 40 36 35 33 34 33 30 31 29 31 30 30 29 29 29 29 29 30 31 32 33 33 33 31 27 29 36 39 42 48 52 54 55 55 56 57 57 57 58 58 58 58 58 58 58 59 59 60 60 61 61 60 61 61 61 61 60 60 60 61 61 61 61 61 61 61 61 61 61
43 43 43 42 40 40 41 42 42 41 42 43 42 40 37 36 34 33 31 32 33 33 33 33 32 31 29 30 31 31 30 28 29 29 29 30 32 33 34 34 35 30 28 32 38 41 45 50 53 55 55 56 56 57 57 57 58 58 58 58 58 58 58 59 59 60 61 61 61 61 61 61 61 60 60 60 61 61 61 61 61 61 61 61 61 61
42 43 44 44 42 43 43 42 43 44 43 41 37 35 36 33 32 31 28 30 31 31 30 33 32 32 29 27 31 32 32 30 29 29 29 29 29 31 35 36 36 33 29 29 32 36 40 45 51 53 54 55 56 57 57 57 57 57 58 58 58 58 58 59 59 60 60 61 61 61 61 61 61 60 60 60 60 60 60 61 61 61 61 61 61 61
41 43 43 44 46 42 42 41 41 42 44 41 37 36 34 30 31 30 30 30 32 30 21 25 32 30 31 31 32 33 33 33 31 29 29 29 29 30 32 34 35 34 31 30 30 32 35 37 43 50 52 53 55 56 56 57 57 57 57 57 57 57 58 59 59 59 60 61 61 61 61 61 61 60 60 60 60 60 60 61 60 60 60 61 60 61
39 43 43 43 43 45 43 39 37 39 41 41 36 35 33 29 29 28 30 31 31 30 29 28 30 28 30 29 33 33 33 33 33 32 30 29 29 30 31 35 33 33 32 32 32 32 33 34 35 42 50 51 52 54 56 56 56 56 57 57 57 57 58 58 59 59 60 60 61 61 61 61 61 60 60 60 60 60 60 60 60 60 60 60 60 61
34 35 40 43 40 45 42 40 40 39 40 39 38 36 33 32 30 27 28 27 29 28 26 29 29 28 27 29 28 31 32 32 33 34 33 33 32 31 32 35 35 34 33 33 32 33 34 35 35 37 41 48 50 51 54 55 56 56 56 56 56 57 57 58 59 59 59 60 60 61 61 61 61 60 60 60 60 60 60 60 60 60 60 60 60 61
36 36 42 43 42 44 42 41 41 40 38 38 38 38 34 31 32 28 26 28 25 20 20 21 29 27 29 30 29 29 28 27 26 26 28 28 30 31 30 30 31 32 32 34 35 35 35 36 37 38 39 41 45 48 51 53 55 56 56 57 57 57 57 57 57 58 59 59 60 60 61 61 60 59 60 60 60 60 60 60 60 60 60 60 60 61
34 34 43 42 44 43 43 41 40 40 34 37 39 35 35 35 32 26 27 26 25 22 24 22 25 27 28 28 29 29 28 28 28 27 23 20 22 26 27 28 28 30 33 34 35 35 35 37 38 39 39 40 41 43 48 52 54 55 56 56 56 57 57 57 57 58 58 59 59 60 61 61 60 60 59 59 59 60 60 59 60 60 60 60 60 60
34 35 43 41 41 43 44 42 40 40 39 37 37 37 38 40 37 31 28 25 24 20 21 25 26 24 24 25 30 29 28 28 28 28 26 23 23 22 25 28 29 30 33 33 32 32 33 34 36 37 38 39 40 40 43 49 52 54 55 56 56 56 57 57 58 58 58 58 59 59 60 60 60 60 59 59 59 59 59 59 60 60 60 60 60 60
39 33 36 38 41 41 44 41 40 42 42 38 37 38 35 32 31 32 29 26 23 24 23 22 25 24 26 26 26 23 27 27 27 28 26 24 23 22 22 24 28 31 34 34 33 33 34 34 35 35 35 35 36 37 39 40 44 47 50 53 55 55 56 57 57 57 58 58 58 59 59 59 60 60 60 59 59 59 59 59 59 59 60 59 58 57
38 33 34 38 40 40 43 43 36 39 41 41 40 36 38 33 32 30 31 27 26 25 19 20 22 24 27 26 26 25 25 27 27 27 25 24 23 22 22 25 28 30 34 37 37 37 37 36 37 38 38 38 38 38 39 40 40 41 44 47 49 50 50 51 53 55 56 57 58 58 58 58 59 59 59 58 58 58 58 58 58 58 58 58 57 58
37 35 32 35 38 40 37 39 38 37 35 37 38 36 36 34 35 33 31 28 26 23 21 19 18 24 27 28 27 26 27 27 27 27 28 25 23 23 23 26 32 34 36 38 38 38 39 39 39 39 40 40 40 41 41 41 41 41 42 43 44 46 47 48 50 51 53 53 55 55 56 56 56 57 57 56 57 57 57 58 56 58 58 56 57 57
35 33 32 34 34 36 38 39 39 38 35 36 36 35 35 33 30 30 29 30 28 25 22 19 23 22 28 28 27 27 27 27 27 27 27 26 24 24 29 31 34 34 35 37 38 38 38 38 38 40 39 39 40 40 41 41 42 42 42 43 43 44 45 46 47 48 49 50 52 53 54 54 53 55 55 55 55 55 56 56 56 56 54 56 56 56
42 35 35 34 35 37 39 33 33 37 36 36 36 35 36 35 32 31 29 30 30 30 28 23 22 27 29 26 28 28 27 26 26 27 27 29 26 26 31 33 34 34 34 36 36 36 37 37 37 39 39 39 39 39 39 39 41 41 41 41 42 44 45 46 47 46 48 50 50 51 51 50 51 51 51 53 52 53 53 53 53 53 55 55 54 54
39 34 33 31 34 36 38 37 39 39 37 38 39 37 36 34 32 32 31 31 30 29 29 27 25 26 24 27 26 27 27 26 26 28 27 23 27 33 33 33 33 33 34 34 34 34 34 36 37 38 39 38 38 39 40 41 40 41 40 40 40 41 42 42 43 45 47 46 46 46 46 48 45 47 47 50 48 50 49 50 51 52 54 54 54 55
35 34 35 30 30 31 33 36 34 36 37 36 36 36 37 36 35 33 31 29 30 31 30 29 26 28 31 28 27 21 21 20 19 23 23 25 28 29 29 32 32 32 33 34 34 35 35 36 38 39 39 40 39 38 38 39 40 40 40 40 41 40 41 41 42 44 43 42 43 44 46 47 47 48 47 47 45 47 47 48 49 51 54 53 53 54
37 36 34 29 25 24 24 26 28 31 34 36 37 36 36 36 35 31 31 28 28 30 31 29 28 29 23 30 27 26 18 16 18 21 25 26 26 27 27 30 32 33 33 33 34 35 36 38 38 37 37 38 39 40 40 40 41 40 39 41 39 41 39 40 40 41 42 41 43 43 45 47 48 48 48 47 46 46 47 49 49 51 50 52 54 52
35 37 37 36 31 28 30 33 37 36 36 34 35 36 35 36 35 34 32 30 28 29 29 30 30 29 27 26 27 29 25 19 17 20 20 23 27 29 30 32 33 33 33 34 36 36 35 36 37 38 38 39 39 38 40 40 41 40 40 40 40 40 41 40 40 40 43 41 42 42 43 44 45 45 46 45 45 45 45 47 46 49 50 48 51 51
33 35 37 36 34 35 34 36 37 36 34 35 34 34 35 35 35 34 32 30 31 28 27 30 30 30 30 29 29 30 30 27 23 21 20 23 26 28 30 32 35 33 34 33 34 36 37 38 36 36 38 38 39 38 39 39 40 41 40 41 39 38 39 40 39 38 38 39 39 40 40 41 43 45 44 44 45 45 45 45 45 47 47 45 50 49
35 33 36 36 34 35 36 35 36 35 34 35 35 34 34 35 35 33 33 34 33 30 28 30 31 29 29 30 30 29 29 28 24 22 22 21 23 28 30 30 28 29 30 31 33 36 37 36 36 37 37 38 37 38 38 38 39 38 38 38 38 37 39 37 39 38 39 38 39 41 41 42 41 40 39 41 42 42 43 43 43 42 42 42 44 47
38 34 35 36 34 35 35 35 36 35 35 35 35 34 34 34 34 34 34 34 34 32 32 31 31 30 30 30 30 30 30 30 27 24 23 23 27 28 28 27 26 26 27 30 34 36 38 38 37 37 37 36 38 38 38 39 40 40 41 40 39 39 38 38 39 40 40 42 41 41 41 42 42 43 40 40 41 40 39 40 40 40 40 41 41 41
39 34 36 36 34 33 34 36 35 35 34 33 34 35 34 34 34 34 34 34 34 33 33 32 31 31 31 31 31 31 30 29 28 26 23 22 26 28 27 26 24 24 25 29 33 36 38 39 38 37 37 38 39 39 40 40 41 40 40 40 40 40 39 40 41 41 42 43 41 41 41 41 41 41 41 39 38 37 37 38 37 38 39 39 39 39
38 33 37 35 32 32 34 34 35 34 34 33 33 34 34 33 32 33 33 34 33 32 32 32 31 30 31 31 31 32 28 27 27 26 22 21 25 27 26 24 24 24 24 27 31 32 35 37 37 38 39 38 38 38 39 39 39 39 40 40 40 40 39 41 42 43 42 42 41 41 41 39 39 39 39 38 38 37 36 36 36 36 37 36 37 37
36 34 33 33 32 32 34 34 34 33 33 32 32 33 34 34 33 34 34 34 33 33 32 31 30 32 32 32 32 32 31 28 26 25 23 22 26 26 24 23 23 24 23 26 29 31 32 34 37 38 39 38 39 39 40 40 39 40 40 40 40 40 42 43 43 42 42 41 40 39 39 38 38 38 37 37 37 36 36 36 36 36 36 36 36 35
37 35 33 34 31 31 33 33 33 32 27 28 35 35 35 33 33 33 33 33 34 33 32 32 32 32 33 32 32 32 32 31 27 25 23 21 23 24 24 23 23 23 24 26 28 30 31 34 36 37 37 38 39 40 39 39 40 40 39 39 38 41 43 43 42 42 41 40 39 39 38 37 37 37 36 35 35 35 35 36 36 35 35 35 35 36
35 35 33 33 32 31 32 32 30 25 27 37 41 38 35 34 34 34 34 34 34 35 35 34 33 33 33 33 33 33 33 33 31 25 23 22 21 21 21 23 24 24 24 26 29 31 31 33 35 36 36 36 37 37 37 37 37 35 36 38 39 41 42 42 42 41 40 39 38 37 37 37 37 36 35 35 35 35 35 35 35 35 35 35 36 36
33 34 33 32 33 32 31 30 24 24 31 36 37 37 37 36 35 35 34 35 34 34 35 34 34 34 33 33 33 34 34 34 34 34 30 27 26 24 24 26 27 27 27 30 30 33 34 34 34 35 35 36 36 37 38 39 37 37 37 37 38 39 40 41 41 40 39 38 37 37 37 37 36 35 35 35 35 35 35 35 35 35 35 35 35 35
37 35 34 32 33 29 29 30 28 33 31 33 34 34 35 34 34 34 32 33 35 35 35 35 35 35 35 34 34 33 32 31 31 33 34 33 33 31 30 30 31 31 31 32 32 32 33 34 34 34 35 35 37 38 37 35 36 36 36 36 37 38 39 39 39 39 38 38 37 37 36 36 36 35 35 35 35 35 34 35 34 35 34 35 34 34
39 34 34 32 31 32 30 29 30 29 27 30 34 36 36 36 35 36 34 32 35 35 35 35 34 34 35 35 34 32 31 30 31 31 33 33 34 35 32 34 32 33 32 32 32 32 32 33 33 33 35 35 34 34 34 35 36 36 36 36 36 37 37 38 38 38 37 37 37 37 36 36 36 35 35 34 35 35 34 34 34 34 34 35 34 34
39 38 35 33 32 31 30 28 27 26 28 36 35 35 36 35 36 36 33 31 33 34 35 35 34 35 35 34 34 32 31 31 31 31 32 32 32 33 33 32 32 33 33 32 32 32 34 34 34 34 33 35 35 35 34 35 35 36 36 35 36 37 37 37 37 37 37 37 37 37 36 36 36 35 35 34 34 34 34 34 34 33 33 33 33 33
35 35 33 31 30 31 31 29 28 29 29 33 34 34 34 35 38 37 29 29 33 33 34 34 34 34 34 34 33 33 32 31 30 32 32 32 32 32 32 32 32 33 33 31 31 32 33 32 34 33 34 35 36 34 34 34 35 35 35 35 36 36 37 37 37 37 37 37 36 36 36 36 35 34 34 34 33 33 33 33 33 32 33 33 33 32
31 32 32 29 30 31 32 30 31 31 33 32 33 33 34 36 33 29 27 30 31 32 33 33 33 34 34 33 33 32 32 32 32 33 32 32 32 32 32 32 32 32 33 32 32 31 32 31 32 33 32 32 32 32 32 33 34 33 33 34 35 36 36 36 37 37 37 37 37 36 36 35 35 34 34 34 33 33 33 33 33 32 32 32 32 32
31 32 32 32 31 30 31 30 29 31 33 34 30 34 35 32 28 28 30 30 31 32 32 32 32 32 33 32 32 32 32 33 32 33 33 32 32 32 33 31 30 30 29 29 30 30 31 30 31 32 31 30 29 31 32 33 33 31 32 33 34 34 34 36 36 36 37 36 36 35 35 34 34 34 33 33 33 33 32 32 32 32 32 32 32 32
30 30 28 29 31 32 31 29 28 26 31 34 33 33 33 30 29 29 27 27 30 31 31 31 32 32 32 32 33 33 32 32 32 32 32 32 32 32 31 31 32 32 32 31 30 29 31 31 31 31 30 29 29 30 30 32 31 30 29 32 29 29 31 34 36 36 36 36 35 35 34 34 34 33 33 33 33 33 32 32 32 32 32 32 32 31
34 30 30 31 34 28 29 27 27 30 32 34 33 30 31 30 26 27 28 25 27 30 30 31 31 31 32 32 32 32 32 31 30 32 32 32 32 31 30 30 29 29 29 28 29 30 30 30 30 30 29 28 27 27 28 32 31 29 30 28 29 29 31 34 36 36 35 34 34 34 33 33 33 33 33 33 33 32 32 32 32 32 31 31 31 31
34 31 32 30 34 32 29 31 32 30 32 33 33 32 32 32 27 26 26 28 28 29 30 30 30 31 31 32 32 32 32 31 31 32 31 31 31 31 31 30 30 30 31 31 29 28 30 31 31 31 29 27 27 27 25 28 31 29 30 29 28 29 31 33 34 34 34 33 33 33 33 33 33 33 33 33 33 32 32 31 31 30 30 31 30 30
33 34 32 31 32 34 34 34 32 30 28 30 32 31 32 32 30 26 24 25 28 29 31 30 31 31 31 32 32 30 32 31 31 31 31 31 31 29 28 29 28 29 29 29 29 31 32 32 32 30 29 28 27 26 25 26 28 30 26 27 26 27 30 32 33 33 32 32 32 32 32 32 32 32 32 32 32 32 31 31 31 30 29 30 29 29
31 34 33 31 31 32 31 33 33 33 31 29 30 32 30 30 30 29 29 28 27 29 29 31 31 31 32 32 32 32 32 32 31 31 30 30 30 30 29 29 29 30 30 31 31 32 32 32 31 29 28 27 26 26 26 26 26 26 26 26 27 28 28 29 29 30 30 30 30 30 31 31 31 31 31 31 31 31 30 30 30 29 28 29 28 28
32 33 32 32 31 32 31 32 33 33 32 30 30 31 31 30 28 29 30 30 31 28 28 29 29 30 31 31 32 32 32 32 31 31 31 30 30 30 29 29 29 30 31 32 32 32 32 32 30 28 27 26 25 25 26 26 26 25 25 26 27 27 28 27 28 28 28 28 28 27 28 29 27 28 29 29 29 29 29 29 29 29 28 27 27 27
31 34 31 32 32 32 33 33 32 29 29 30 29 30 30 30 30 29 28 27 27 28 28 27 27 30 31 32 31 31 31 31 31 31 31 30 30 29 29 28 29 30 31 31 32 32 32 31 29 27 25 24 24 24 24 24 22 21 24 25 26 27 27 26 25 25 24 25 25 24 23 25 25 25 25 24 23 21 22 25 23 24 22 22 22 23
33 32 34 33 31 31 31 31 32 29 29 29 29 30 30 30 30 29 28 28 28 28 28 27 28 27 27 29 31 31 31 30 30 31 30 30 30 29 28 28 29 30 31 31 32 32 31 29 27 25 24 23 23 22 21 18 17 17 19 22 25 26 26 25 24 23 23 22 23 22 22 21 20 20 21 21 20 20 20 25 25 23 21 18 24 28
31 32 34 32 32 32 33 29 30 31 29 30 29 30 30 30 30 29 28 27 28 28 28 28 28 27 28 28 27 30 30 30 30 30 30 30 29 28 29 29 30 29 29 31 30 30 28 27 25 24 23 22 20 18 17 16 15 15 16 19 23 25 24 24 24 23 22 22 21 22 21 21 20 20 19 19 19 19 20 17 21 28 27 26 26 27